Location: Black Forest
(43.4794°N, 75.0081°W)
Time: 10:05:41
(UTC-04:00)

ISS - All Passes

Search period start: 02 September 2014 00:00
Search period end: 12 September 2014 00:00
Orbit: 414 x 419 km, 51.6° (Epoch: 02 September)

Date Brightness Start Highest point End Pass type
(mag) Time Alt. Az. Time Alt. Az. Time Alt. Az.
02 Sep - 09:48:34 10° SSW 09:51:43 40° SE 09:54:52 10° ENE daylight
02 Sep - 11:25:23 10° W 11:28:29 35° NNW 11:31:35 10° NE daylight
02 Sep - 13:03:22 10° NW 13:05:53 20° N 13:08:25 10° NE daylight
02 Sep - 14:40:22 10° NW 14:43:21 29° NNE 14:46:20 10° E daylight
02 Sep - 16:16:59 10° WNW 16:20:16 57° SW 16:23:32 10° SE daylight
03 Sep - 09:00:33 10° SSW 09:03:17 24° SE 09:06:02 10° E daylight
03 Sep - 10:36:35 10° WSW 10:39:50 50° NNW 10:43:06 10° NE daylight
03 Sep - 12:14:31 10° WNW 12:17:07 21° N 12:19:43 10° NE daylight
03 Sep - 13:51:51 10° NW 13:54:38 24° NNE 13:57:25 10° ENE daylight
03 Sep - 15:28:23 10° WNW 15:31:44 85° NE 15:35:04 10° ESE daylight
03 Sep - 17:06:24 10° WSW 17:08:01 13° SW 17:09:38 10° SSW daylight
04 Sep - 08:13:00 10° SSE 08:14:53 14° SE 08:16:47 10° E daylight
04 Sep - 09:47:54 10° WSW 09:51:13 78° NNW 09:54:34 10° NE daylight
04 Sep - 11:25:36 10° WNW 11:28:21 23° NNW 11:31:06 10° NE daylight
04 Sep - 13:03:14 10° NW 13:05:52 21° N 13:08:30 10° ENE daylight
04 Sep - 14:39:50 10° NW 14:43:07 54° NNE 14:46:24 10° ESE daylight
04 Sep - 16:17:00 10° W 16:19:38 22° SW 16:22:15 10° S daylight
05 Sep - 08:59:21 10° SW 09:02:39 64° SE 09:05:57 10° ENE daylight
05 Sep - 10:36:39 10° W 10:39:35 28° NNW 10:42:32 10° NE daylight
05 Sep - 12:14:32 10° NW 12:17:04 20° N 12:19:36 10° NE daylight
05 Sep - 13:51:18 10° NW 13:54:27 37° NNE 13:57:34 10° E daylight
05 Sep - 15:28:04 10° WNW 15:31:10 36° SW 15:34:15 10° SSE daylight
06 Sep - 08:11:01 10° SSW 08:14:07 37° SE 08:17:13 10° ENE daylight
06 Sep - 09:47:43 10° W 09:50:51 37° NNW 09:53:59 10° NE daylight
06 Sep - 11:25:42 10° NW 11:28:14 20° N 11:30:46 10° NE daylight
06 Sep - 13:02:45 10° NW 13:05:42 28° NNE 13:08:39 10° E daylight
06 Sep - 14:39:20 10° WNW 14:42:38 63° SW 14:45:55 10° SE daylight
07 Sep - 07:22:58 10° S 07:25:37 22° SE 07:28:16 10° E daylight
07 Sep - 08:58:52 10° WSW 09:02:08 53° NNW 09:05:24 10° NE daylight
07 Sep - 10:36:46 10° WNW 10:39:23 21° N 10:42:00 10° NE daylight
07 Sep - 12:14:08 10° NW 12:16:54 23° NNE 12:19:39 10° ENE daylight
07 Sep - 13:50:41 10° NW 13:54:01 79° NNE 13:57:20 10° ESE daylight
07 Sep - 15:28:29 10° W 15:30:20 14° SW 15:32:11 10° SSW daylight
08 Sep - 06:35:30 10° SSE 06:37:09 13° SE 06:38:49 10° ESE daylight
08 Sep - 08:10:07 10° WSW 08:13:27 84° NNW 08:16:47 10° ENE daylight
08 Sep - 09:47:45 10° WNW 09:50:32 24° NNW 09:53:20 10° NE daylight
08 Sep - 11:25:27 10° NW 11:28:03 21° N 11:30:39 10° ENE daylight
08 Sep - 13:02:04 10° NW 13:05:19 50° NNE 13:08:34 10° ESE daylight
08 Sep - 14:39:08 10° W 14:41:52 24° SW 14:44:35 10° SSE daylight
09 Sep - 07:21:32 10° SW 07:24:48 58° SE 07:28:05 10° ENE daylight
09 Sep - 08:58:44 10° W 09:01:42 29° NNW 09:04:41 10° NE daylight
09 Sep - 10:36:38 10° NW 10:39:10 20° N 10:41:41 10° NE daylight
09 Sep - 12:13:27 10° NW 12:16:34 35° NNE 12:19:40 10° E daylight
09 Sep - 13:50:10 10° WNW 13:53:19 40° SW 13:56:27 10° SSE daylight
10 Sep - 06:33:10 10° SSW 06:36:12 34° SE 06:39:15 10° ENE daylight
10 Sep - 08:09:44 10° W 08:12:54 39° NNW 08:16:03 10° NE daylight
10 Sep - 09:47:43 10° NW 09:50:15 20° N 09:52:48 10° NE daylight
10 Sep - 11:24:49 10° NW 11:27:44 27° NNE 11:30:39 10° ENE daylight
10 Sep - 13:01:22 10° WNW 13:04:42 69° SW 13:08:00 10° SE daylight
11 Sep - 05:45:07 10° S 05:47:38 20° SE 05:50:10 10° E visible
11 Sep - 07:20:49 10° WSW 07:24:07 57° NNW 07:27:25 10° NE daylight
11 Sep - 08:58:41 10° WNW 09:01:20 21° N 09:03:59 10° NE daylight
11 Sep - 10:36:07 10° NW 10:38:51 23° NNE 10:41:34 10° ENE daylight
11 Sep - 12:12:39 10° NW 12:16:00 72° NNE 12:19:18 10° ESE daylight
11 Sep - 13:50:17 10° W 13:52:21 16° SW 13:54:25 10° S daylight
